CST,Max TemperatureF,Mean TemperatureF,Min TemperatureF,Max Dew PointF,MeanDew PointF,Min DewpointF,Max Humidity, Mean Humidity, Min Humidity, Max Sea Level PressureIn, Mean Sea Level PressureIn, Min Sea Level PressureIn, Max VisibilityMiles, Mean VisibilityMiles, Min VisibilityMiles, Max Wind SpeedMPH, Mean Wind SpeedMPH, Max Gust SpeedMPH,PrecipitationIn, CloudCover, Events, WindDirDegrees
2012-12-1,,,,,,,,,,,,,,,,,,,,,,
2012-12-2,,,,,,,,,,,,,,,,,,,,,,
2012-12-3,,,,,,,,,,,,,,,,,,,,,,
2012-12-4,,,,,,,,,,,,,,,,,,,,,,
2012-12-5,39,36,32,30,26,23,81,69,56,30.42,30.35,30.26,10,10,10,12,8,18,0.00,1,,24
2012-12-6,42,37,32,36,32,27,81,75,66,30.16,30.01,29.93,10,10,10,9,6,20,0.00,3,,173
2012-12-7,44,42,41,43,40,36,100,93,76,29.96,29.92,29.85,10,5,1,6,2,,0.00,8,Rain,25
2012-12-8,42,38,33,41,36,30,100,91,81,30.11,29.97,29.82,10,7,0,13,4,18,0.00,8,Fog-Rain,32
2012-12-9,42,38,33,43,36,30,100,93,87,30.10,29.86,29.70,10,7,1,13,6,21,0.00,8,Rain,132
2012-12-10,37,34,32,36,30,27,100,88,75,29.92,29.79,29.70,10,8,2,15,9,24,0.00,8,Rain-Snow,282
2012-12-11,33,30,26,27,23,19,86,74,56,30.18,30.04,29.91,10,10,10,16,8,23,0.00,3,,216
2012-12-12,42,34,26,27,24,21,86,69,49,30.32,30.28,30.18,10,10,10,14,6,20,0.00,0,,190
2012-12-13,46,39,32,27,25,23,75,62,43,30.32,30.24,30.13,10,10,10,17,11,24,0.00,0,,196
2012-12-14,46,38,30,32,29,27,86,69,53,30.23,30.16,30.07,10,10,10,7,4,,0.00,0,,178
2012-12-15,50,46,41,46,38,28,100,78,57,30.06,29.80,29.62,10,9,4,14,7,23,0.00,6,Rain,167
2012-12-16,50,44,37,46,40,34,93,87,76,29.73,29.65,29.60,10,9,4,13,8,18,0.00,8,Rain,244
2012-12-17,41,38,35,34,33,30,93,85,70,29.74,29.70,29.65,10,9,7,6,3,,0.00,8,,268
2012-12-18,41,36,32,36,32,28,100,87,75,29.80,29.72,29.64,10,8,4,14,5,23,0.00,7,,196
2012-12-19,41,39,37,37,34,34,100,84,76,30.06,29.97,29.78,10,9,2,13,6,21,0.00,8,Rain,340
2012-12-20,50,42,33,48,38,32,100,90,70,29.79,29.31,29.04,10,7,3,26,12,43,0.00,8,Rain-Snow,156
2012-12-21,33,32,30,34,28,23,100,86,75,30.12,29.81,29.33,10,9,2,29,21,45,0.00,8,Rain-Snow,317
2012-12-22,32,28,23,25,22,19,86,75,60,30.20,30.11,29.96,10,10,10,10,8,20,0.00,4,,229
2012-12-23,35,27,19,30,25,18,100,84,74,30.02,29.96,29.91,10,10,7,9,1,,0.00,5,,90
2012-12-24,33,30,26,28,25,23,87,80,75,30.06,29.91,29.83,10,10,10,9,3,,0.00,5,,48
2012-12-25,33,30,26,25,21,18,86,70,56,30.29,30.21,30.06,10,10,10,12,4,17,0.00,5,,59
2012-12-26,32,30,28,28,23,18,93,74,64,30.18,30.01,29.92,10,9,1,18,11,30,0.00,8,Snow,27
2012-12-27,33,30,28,28,27,23,100,82,69,30.16,30.12,30.03,10,10,5,10,4,,0.00,8,Snow,33
2012-12-28,32,31,30,28,27,27,93,86,80,30.13,30.02,29.86,10,8,1,7,3,,0.00,7,Snow,155
2012-12-29,32,29,24,32,27,19,100,89,74,30.20,29.95,29.84,10,5,1,15,4,22,0.00,8,Snow,280
2012-12-30,32,23,14,25,19,10,93,77,60,30.35,30.26,30.13,10,9,7,14,9,21,0.00,2,,210
2012-12-31,35,32,28,27,24,21,80,74,69,30.12,30.05,30.00,10,10,10,18,11,23,0.00,5,,253